Fremont, MI

2:15 PM EST on December 07, 2019 (GMT -0500)
Fremont

Weather History for KFFX - October, 2019

Change the Weather History Date:

Tuesday, October 8, 2019

  Actual Average (KMKG) Record (KMKG)
Temperature  
Mean Temperature 54 °F -  
Max Temperature 66 °F 60 °F 82 °F (1949)
Min Temperature 41 °F 44 °F 27 °F (1989)
Degree Days  
Heating Degree Days 12    
Growing Degree Days 4 (Base 50)    
Moisture  
Dew Point 38 °F    
Average Humidity 65    
Maximum Humidity 98    
Minimum Humidity 23    
Precipitation  
Precipitation 0.00 in - - ()
Sea Level Pressure  
Sea Level Pressure 30.23 in    
Wind  
Wind Speed 2 mph ()    
Max Wind Speed 9 mph    
Max Gust Speed -    
Visibility 9.5 miles    
Events      
Averages and records for this station are not official NWS values.
T = Trace of Precipitation, MM = Missing Value Source: Averaged Metar Reports

Daily Weather History Graph

Daily Weather History Graph

Search for Another Location

Airport or City:

Astronomy

Oct. 08, 2019 Rise Set
Actual Time 7:49 AM EDT 7:13 PM EDT
Civil Twilight 7:20 AM EDT 7:41 PM EDT
Nautical Twilight 6:47 AM EDT 8:14 PM EDT
Astronomical Twilight 6:14 AM EDT 8:47 PM EDT
Moon 5:22 PM EDT (10/8) 2:26 AM EDT (10/8)
Length of Visible Light 12h 20m
Length of Day
11h 23m
Waxing Gibbous, 77% of the Moon is Illuminated
Oct 8
Waxing Gibbous
Oct 13
Full
Oct 21
Last Quarter
Oct 27
New
Nov 4
First Quarter

Hourly Weather History & Observations

Time (EDT) Temp. Windchill Dew Point Humidity Pressure Visibility Wind Dir Wind Speed Gust Speed Precip Events Conditions
12:15 AM 45.9 °F - 45.0 °F 97% 30.22 in 10.0 mi Calm Calm - N/A   Clear
12:59 AM 44.6 °F - 43.7 °F 97% 30.22 in 5.0 mi Calm Calm - N/A   Clear
1:17 AM 44.1 °F - 43.0 °F 96% 30.23 in 7.0 mi Calm Calm - N/A   Clear
1:35 AM 44.2 °F - 43.3 °F 97% 30.22 in 7.0 mi Calm Calm - N/A   Clear
1:36 AM 44.4 °F - 43.3 °F 96% 30.22 in 7.0 mi Calm Calm - N/A   Clear
1:55 AM 44.4 °F 42.9 °F 43.3 °F 96% 30.22 in 7.0 mi East 3.5 mph - N/A   Clear
1:56 AM 44.4 °F 42.9 °F 43.3 °F 96% 30.22 in 5.0 mi East 3.5 mph - N/A   Clear
2:15 AM 44.4 °F - 43.3 °F 96% 30.23 in 10.0 mi Calm Calm - N/A   Clear
2:38 AM 43.3 °F - 42.3 °F 96% 30.23 in 5.0 mi Calm Calm - N/A   Clear
2:56 AM 42.4 °F 40.7 °F 41.2 °F 95% 30.23 in 7.0 mi East 3.5 mph - N/A   Clear
3:15 AM 43.7 °F 42.1 °F 42.4 °F 95% 30.23 in 5.0 mi ESE 3.5 mph - N/A   Clear
3:35 AM 43.2 °F - 42.3 °F 97% 30.23 in 10.0 mi Calm Calm - N/A   Clear
3:36 AM 43.3 °F - 42.3 °F 96% 30.23 in 10.0 mi Calm Calm - N/A   Clear
3:59 AM 42.6 °F - 41.4 °F 95% 30.23 in 2.0 mi Calm Calm - N/A   Clear
4:17 AM 41.5 °F - 40.6 °F 97% 30.23 in 10.0 mi Calm Calm - N/A   Clear
4:35 AM 42.6 °F - 41.5 °F 96% 30.23 in 10.0 mi Calm Calm - N/A   Clear
4:55 AM 41.7 °F - 40.8 °F 97% 30.23 in 10.0 mi Calm Calm - N/A   Clear
4:56 AM 41.4 °F - 40.5 °F 97% 30.23 in 7.0 mi Calm Calm - N/A   Clear
5:15 AM 42.3 °F 40.5 °F 41.2 °F 96% 30.24 in 10.0 mi East 3.5 mph - N/A   Clear
5:20 AM 42.4 °F 40.7 °F 41.4 °F 96% 30.24 in 10.0 mi East 3.5 mph - N/A   Clear
5:38 AM 42.8 °F - 41.9 °F 97% 30.24 in 10.0 mi Calm Calm - N/A   Clear
5:56 AM 42.8 °F 41.1 °F 42.3 °F 98% 30.25 in 10.0 mi East 3.5 mph - N/A   Clear
6:15 AM 42.4 °F 40.7 °F 41.9 °F 98% 30.25 in 10.0 mi East 3.5 mph - N/A   Clear
6:35 AM 42.8 °F - 42.1 °F 97% 30.25 in 10.0 mi Calm Calm - N/A   Clear
6:59 AM 42.6 °F 40.9 °F 41.9 °F 97% 30.25 in 10.0 mi East 3.5 mph - N/A   Clear
7:17 AM 41.9 °F - 41.2 °F 97% 30.25 in 10.0 mi Calm Calm - N/A   Clear
7:35 AM 41.0 °F 39.0 °F 40.1 °F 97% 30.26 in 10.0 mi ESE 3.5 mph - N/A   Clear
7:36 AM 41.0 °F 38.0 °F 40.1 °F 97% 30.26 in 10.0 mi ESE 4.6 mph - N/A   Clear
7:55 AM 41.2 °F 38.2 °F 40.5 °F 97% 30.27 in 10.0 mi East 4.6 mph - N/A   Clear
8:15 AM 41.9 °F 40.0 °F 41.2 °F 97% 30.27 in 10.0 mi East 3.5 mph - N/A   Clear
8:38 AM 43.9 °F 42.3 °F 43.2 °F 97% 30.27 in 10.0 mi East 3.5 mph - N/A   Clear
8:56 AM 45.0 °F 43.5 °F 43.9 °F 96% 30.28 in 10.0 mi ESE 3.5 mph - N/A   Clear
9:15 AM 46.6 °F - 44.8 °F 93% 30.28 in 10.0 mi Calm Calm - N/A   Clear
9:16 AM 46.6 °F - 44.8 °F 93% 30.28 in 10.0 mi ESE 3.5 mph - N/A   Clear
9:35 AM 48.6 °F - 45.1 °F 88% 30.28 in 10.0 mi Calm Calm - N/A   Clear
9:36 AM 48.7 °F - 45.3 °F 88% 30.28 in 10.0 mi Calm Calm - N/A   Clear
9:59 AM 50.0 °F - 43.2 °F 77% 30.29 in 10.0 mi SE 4.6 mph - N/A   Clear
10:17 AM 51.8 °F - 40.3 °F 65% 30.29 in 10.0 mi SSE 4.6 mph - N/A   Clear
10:35 AM 53.1 °F - 39.0 °F 59% 30.29 in 10.0 mi SSE 5.8 mph - N/A   Clear
10:36 AM 53.2 °F - 39.2 °F 59% 30.29 in 10.0 mi SSE 4.6 mph - N/A   Clear
10:55 AM 54.7 °F - 38.8 °F 55% 30.29 in 10.0 mi SSE 4.6 mph - N/A   Clear
10:56 AM 54.9 °F - 38.8 °F 55% 30.29 in 10.0 mi SSE 4.6 mph - N/A   Clear
11:15 AM 56.8 °F - 38.8 °F 51% 30.28 in 10.0 mi SSE 6.9 mph - N/A   Clear
11:20 AM 56.7 °F - 38.5 °F 51% 30.28 in 10.0 mi SSE 4.6 mph - N/A   Clear
11:38 AM 58.8 °F - 38.1 °F 46% 30.28 in 10.0 mi South 5.8 mph - N/A   Clear
11:56 AM 60.1 °F - 35.4 °F 40% 30.28 in 10.0 mi SE 5.8 mph - N/A   Clear
12:15 PM 61.7 °F - 32.0 °F 33% 30.28 in 10.0 mi SE 9.2 mph - N/A   Clear
12:35 PM 62.4 °F - 31.1 °F 31% 30.27 in 10.0 mi SE 8.1 mph - N/A   Clear
12:36 PM 62.4 °F - 31.1 °F 31% 30.27 in 10.0 mi SE 9.2 mph - N/A   Clear
12:59 PM 63.0 °F - 29.1 °F 28% 30.26 in 10.0 mi SSE 6.9 mph - N/A   Clear
1:17 PM 63.7 °F - 28.2 °F 26% 30.26 in 10.0 mi SE 6.9 mph - N/A   Clear
1:35 PM 63.9 °F - 26.2 °F 24% 30.25 in 10.0 mi South 6.9 mph - N/A   Clear
1:55 PM 64.4 °F - 25.9 °F 23% 30.24 in 10.0 mi SSE 8.1 mph - N/A   Clear
2:15 PM 64.4 °F - 26.2 °F 24% 30.23 in 10.0 mi South 6.9 mph - N/A   Clear
2:19 PM 64.8 °F - 26.6 °F 24% 30.23 in 10.0 mi SSE 5.8 mph - N/A   Clear
2:38 PM 65.1 °F - 27.1 °F 24% 30.23 in 10.0 mi South 8.1 mph - N/A   Clear
2:56 PM 65.3 °F - 25.9 °F 23% 30.22 in 10.0 mi SE 5.8 mph - N/A   Clear
3:15 PM 64.9 °F - 26.6 °F 24% 30.22 in 10.0 mi SE 8.1 mph - N/A   Clear
3:35 PM 65.3 °F - 27.1 °F 24% 30.21 in 10.0 mi SSE 5.8 mph - N/A   Clear
4:35 PM 66.4 °F - 29.8 °F 25% 30.20 in 10.0 mi South 4.6 mph - N/A   Clear
4:55 PM 66.2 °F - 29.3 °F 25% 30.20 in 10.0 mi Calm Calm - N/A   Clear
4:56 PM 66.2 °F - 28.9 °F 25% 30.20 in 10.0 mi Calm Calm - N/A   Clear
5:15 PM 65.5 °F - 28.8 °F 25% 30.20 in 10.0 mi South 3.5 mph - N/A   Clear
5:38 PM 64.9 °F - 29.8 °F 27% 30.20 in 10.0 mi SSE 4.6 mph - N/A   Clear
5:56 PM 64.9 °F - 30.7 °F 28% 30.20 in 10.0 mi South 3.5 mph - N/A   Clear
6:15 PM 64.0 °F - 31.5 °F 30% 30.19 in 10.0 mi South 3.5 mph - N/A   Clear
6:35 PM 62.6 °F - 34.0 °F 34% 30.19 in 10.0 mi Calm Calm - N/A   Clear
6:59 PM 60.6 °F - 37.2 °F 42% 30.19 in 10.0 mi Calm Calm - N/A   Clear
7:17 PM 58.1 °F - 39.2 °F 49% 30.19 in 10.0 mi Calm Calm - N/A   Clear
7:35 PM 57.0 °F - 40.6 °F 54% 30.19 in 10.0 mi ESE 3.5 mph - N/A   Clear
7:55 PM 56.3 °F - 40.3 °F 55% 30.19 in 10.0 mi ESE 3.5 mph - N/A   Clear
8:15 PM 56.3 °F - 38.7 °F 52% 30.19 in 10.0 mi ESE 3.5 mph - N/A   Clear
8:20 PM 55.6 °F - 38.7 °F 53% 30.19 in 10.0 mi ESE 3.5 mph - N/A   Clear
8:38 PM 55.2 °F - 38.3 °F 53% 30.19 in 10.0 mi Calm Calm - N/A   Clear
8:56 PM 54.3 °F - 38.3 °F 55% 30.19 in 10.0 mi East 3.5 mph - N/A   Clear
9:15 PM 54.7 °F - 37.6 °F 53% 30.19 in 10.0 mi East 3.5 mph - N/A   Clear
9:35 PM 53.8 °F - 37.4 °F 54% 30.19 in 10.0 mi ESE 3.5 mph - N/A   Clear
9:59 PM 54.0 °F - 36.9 °F 52% 30.19 in 10.0 mi ESE 3.5 mph - N/A   Clear
10:17 PM 54.0 °F - 36.7 °F 52% 30.19 in 10.0 mi ESE 3.5 mph - N/A   Clear
10:35 PM 52.7 °F - 36.5 °F 54% 30.19 in 10.0 mi ESE 3.5 mph - N/A   Clear
10:55 PM 52.5 °F - 36.3 °F 54% 30.19 in 10.0 mi ESE 4.6 mph - N/A   Clear
11:15 PM 52.3 °F - 35.8 °F 53% 30.18 in 10.0 mi ESE 5.8 mph - N/A   Clear
11:38 PM 51.8 °F - 35.8 °F 54% 30.18 in 10.0 mi ESE 5.8 mph - N/A   Clear
11:56 PM 51.3 °F - 35.8 °F 55% 30.18 in 10.0 mi ESE 3.5 mph - N/A   Clear